Weather History for Ely, MN

Change the Weather History Date:

Saturday, April 6, 2013

  Actual Average Record
Temperature  
Mean Temperature 28 °F -  
Max Temperature 32 °F 41 °F 59 °F (2006)
Min Temperature 24 °F 22 °F 0 °F (2003)
Degree Days  
Heating Degree Days 37    
Moisture  
Dew Point 28 °F    
Average Humidity 95    
Maximum Humidity 100    
Minimum Humidity 80    
Precipitation  
Precipitation 0.27 in - - ()
Sea Level Pressure  
Sea Level Pressure 29.73 in    
Wind  
Wind Speed 7 mph (ESE)    
Max Wind Speed 12 mph    
Max Gust Speed 17 mph    
Visibility 5 miles    
Events Snow    
Averages and records for this station are not official NWS values.
T = Trace of Precipitation, MM = Missing Value Source: NWS Daily Summary

Daily Weather History Graph

Daily Weather History Graph

Search for Another Location

Airport:

Trip Planner

Search our weather history database for the weather conditions in past years. The results will help you decide how hot, cold, wet, or windy it might be!

Date:

Astronomy

Apr. 06, 2013 Rise Set
Actual Time 6:35 AM CDT 7:44 PM CDT
Civil Twilight 6:03 AM CDT 8:16 PM CDT
Nautical Twilight 5:25 AM CDT 8:55 PM CDT
Astronomical Twilight 4:44 AM CDT 9:35 PM CDT
Moon 4:34 AM CDT (4/6) 4:00 PM CDT (4/6)
Length of Visible Light 14h 13m
Length of Day
13h 09m
Waning Crescent, 15% of the Moon is Illuminated
Apr 6
Waning Crescent
Apr 10
New
Apr 18
First Quarter
Apr 25
Full
May 2
Last Quarter

Hourly Weather History & Observations

Time (CDT) Temp. Windchill Dew Point Humidity Pressure Visibility Wind Dir Wind Speed Gust Speed Precip Events Conditions
12:13 AM 26.6 °F 18.2 °F 21.2 °F 80% 30.00 in 1.8 mi SSE 8.1 mph - N/A Snow Light Snow
12:32 AM 26.6 °F 17.5 °F 21.2 °F 80% 29.99 in 7.0 mi SE 9.2 mph - N/A Snow Light Snow
12:53 AM 26.6 °F 16.8 °F 21.2 °F 80% 29.99 in 7.0 mi SE 10.4 mph - N/A Snow Light Snow
1:13 AM 26.6 °F 17.5 °F 21.2 °F 80% 29.98 in 5.0 mi SE 9.2 mph - N/A Snow Light Snow
1:32 AM 26.6 °F 16.2 °F 21.2 °F 80% 29.97 in 4.0 mi SE 11.5 mph - N/A Snow Light Snow
1:53 AM 24.8 °F 14.6 °F 21.2 °F 86% 29.96 in 2.5 mi SE 10.4 mph - N/A Snow Light Snow
2:13 AM 24.8 °F 16.1 °F 21.2 °F 86% 29.95 in 1.8 mi ESE 8.1 mph - N/A Snow Light Snow
2:32 AM 24.8 °F 15.3 °F 21.2 °F 86% 29.94 in 1.8 mi East 9.2 mph - N/A Snow Light Snow
2:53 AM 24.8 °F 17.9 °F 21.2 °F 86% 29.93 in 2.0 mi East 5.8 mph - N/A Snow Light Snow
3:13 AM 24.8 °F 16.1 °F 21.2 °F 86% 29.91 in 1.0 mi East 8.1 mph - N/A Snow Snow
3:32 AM 24.8 °F 16.1 °F 23.0 °F 93% 29.89 in 4.0 mi ESE 8.1 mph - N/A Snow Light Snow
3:53 AM 24.8 °F 17.9 °F 23.0 °F 93% 29.89 in 4.0 mi ESE 5.8 mph - N/A Snow Light Snow
4:13 AM 24.8 °F 17.9 °F 23.0 °F 93% 29.87 in 7.0 mi ESE 5.8 mph - N/A Snow Light Snow
4:33 AM 26.6 °F 19.1 °F 23.0 °F 86% 29.86 in 5.0 mi East 6.9 mph - N/A Snow Light Snow
4:53 AM 26.6 °F 20.0 °F 24.8 °F 93% 29.85 in 4.0 mi East 5.8 mph - N/A Snow Light Snow
5:12 AM 26.6 °F 19.1 °F 24.8 °F 93% 29.83 in 5.0 mi East 6.9 mph - N/A Snow Light Snow
5:33 AM 26.6 °F 21.2 °F 24.8 °F 93% 29.83 in 7.0 mi East 4.6 mph - N/A Snow Light Snow
5:53 AM 26.6 °F 21.2 °F 24.8 °F 93% 29.82 in 10.0 mi East 4.6 mph - N/A Snow Light Snow
6:12 AM 28.4 °F 22.2 °F 26.6 °F 93% 29.81 in 10.0 mi ESE 5.8 mph - N/A   Overcast
6:33 AM 28.4 °F 21.2 °F 26.6 °F 93% 29.80 in 10.0 mi ESE 6.9 mph - 0.01 in   Overcast
6:53 AM 28.4 °F 20.4 °F 26.6 °F 93% 29.80 in 10.0 mi ESE 8.1 mph - 0.01 in   Overcast
7:12 AM 28.4 °F 20.4 °F 26.6 °F 93% 29.79 in 10.0 mi SE 8.1 mph - N/A   Overcast
7:33 AM 30.2 °F 22.6 °F 26.6 °F 86% 29.78 in 10.0 mi SE 8.1 mph - N/A   Overcast
7:53 AM 30.2 °F 20.8 °F 28.4 °F 93% 29.76 in 10.0 mi SE 11.5 mph 17.3 mph N/A   Overcast
8:12 AM 30.2 °F 20.8 °F 28.4 °F 93% 29.76 in 10.0 mi SE 11.5 mph - N/A   Overcast
8:33 AM 30.2 °F 21.3 °F 28.4 °F 93% 29.75 in 10.0 mi SE 10.4 mph - N/A   Overcast
8:52 AM 30.2 °F 21.3 °F 28.4 °F 93% 29.75 in 10.0 mi ESE 10.4 mph - N/A   Overcast
9:13 AM 30.2 °F 21.3 °F 28.4 °F 93% 29.73 in 10.0 mi ESE 10.4 mph - N/A   Overcast
9:33 AM 30.2 °F 22.6 °F 28.4 °F 93% 29.72 in 10.0 mi SE 8.1 mph - N/A   Overcast
9:52 AM 30.2 °F 22.6 °F 28.4 °F 93% 29.71 in 10.0 mi SE 8.1 mph - N/A Snow Light Snow
10:13 AM 30.2 °F 23.4 °F 28.4 °F 93% 29.71 in 2.5 mi SE 6.9 mph - N/A Snow Light Snow
10:33 AM 30.2 °F 21.9 °F 28.4 °F 93% 29.70 in 2.0 mi SE 9.2 mph - N/A Snow Light Snow
10:52 AM 30.2 °F 22.6 °F 30.2 °F 100% 29.69 in 0.8 mi SE 8.1 mph - 0.01 in Snow Light Snow
11:13 AM 30.2 °F 23.4 °F 30.2 °F 100% 29.68 in 0.5 mi SE 6.9 mph - 0.01 in Snow Snow
11:33 AM 30.2 °F 21.9 °F 30.2 °F 100% 29.68 in 0.8 mi SE 9.2 mph - 0.02 in Snow Light Snow
11:52 AM 30.2 °F 23.4 °F 30.2 °F 100% 29.67 in 0.5 mi SE 6.9 mph - 0.04 in Snow Snow
12:13 PM 30.2 °F 21.3 °F 30.2 °F 100% 29.65 in 0.5 mi SE 10.4 mph - 0.01 in Snow Snow
12:33 PM 30.2 °F 24.3 °F 30.2 °F 100% 29.65 in 0.5 mi SE 5.8 mph - 0.02 in Snow Snow
12:52 PM 30.2 °F 22.6 °F 30.2 °F 100% 29.65 in 0.5 mi SE 8.1 mph - 0.03 in Snow Snow
1:13 PM 30.2 °F 25.4 °F 30.2 °F 100% 29.64 in 0.8 mi ESE 4.6 mph - 0.02 in Snow Light Snow
1:33 PM 30.2 °F 25.4 °F 30.2 °F 100% 29.64 in 1.0 mi ESE 4.6 mph - 0.03 in Snow Light Snow
1:52 PM 32.0 °F 27.5 °F 30.2 °F 93% 29.63 in 1.2 mi SE 4.6 mph - 0.04 in Snow Light Snow
2:13 PM 30.2 °F 25.4 °F 30.2 °F 100% 29.62 in 0.8 mi SE 4.6 mph - 0.01 in Snow Light Snow
2:33 PM 30.2 °F 26.7 °F 30.2 °F 100% 29.62 in 0.5 mi ESE 3.5 mph - 0.02 in Snow Snow
2:52 PM 30.2 °F 26.7 °F 30.2 °F 100% 29.61 in 0.5 mi East 3.5 mph - 0.04 in Snow Snow
3:13 PM 30.2 °F 26.7 °F 30.2 °F 100% 29.61 in 0.5 mi ESE 3.5 mph - 0.02 in Snow Snow
3:33 PM 30.2 °F - 30.2 °F 100% 29.61 in 0.8 mi Calm Calm - 0.04 in Snow Light Snow
3:52 PM 30.2 °F - 30.2 °F 100% 29.61 in 0.5 mi Calm Calm - 0.05 in Snow Snow
4:13 PM 30.2 °F - 30.2 °F 100% 29.61 in 0.8 mi Calm Calm - 0.02 in Snow Light Snow
4:33 PM 30.2 °F - 30.2 °F 100% 29.61 in 0.8 mi Calm Calm - 0.03 in Snow Light Snow
4:52 PM 30.2 °F - 30.2 °F 100% 29.61 in 0.8 mi Calm Calm - 0.04 in Snow Light Snow
5:13 PM 30.2 °F - 30.2 °F 100% 29.60 in 1.2 mi Calm Calm - 0.01 in Snow Light Snow
5:33 PM 30.2 °F 26.7 °F 30.2 °F 100% 29.61 in 2.5 mi NNE 3.5 mph - 0.01 in Snow Light Snow
5:53 PM 30.2 °F - 30.2 °F 100% 29.61 in 2.0 mi Calm Calm - 0.01 in Snow Light Snow
6:12 PM 30.2 °F - 30.2 °F 100% 29.61 in 2.5 mi Calm Calm - N/A Snow Light Snow
6:32 PM 30.2 °F - 30.2 °F 100% 29.61 in 10.0 mi Calm Calm - N/A   Overcast
6:53 PM 30.2 °F - 30.2 °F 100% 29.62 in 10.0 mi Calm Calm - N/A   Overcast
7:12 PM 30.2 °F - 30.2 °F 100% 29.62 in 5.0 mi Calm Calm - N/A Snow Light Snow
7:33 PM 30.2 °F 26.7 °F 30.2 °F 100% 29.62 in 7.0 mi NNW 3.5 mph - N/A   Overcast
7:53 PM 30.2 °F - 30.2 °F 100% 29.63 in 5.0 mi Calm Calm - N/A Snow Light Snow
8:12 PM 30.2 °F 26.7 °F 30.2 °F 100% 29.63 in 10.0 mi NNW 3.5 mph - N/A   Overcast
8:33 PM 30.2 °F 26.7 °F 30.2 °F 100% 29.63 in 10.0 mi NNW 3.5 mph - N/A   Overcast
8:53 PM 30.2 °F 26.7 °F 30.2 °F 100% 29.63 in 10.0 mi NW 3.5 mph - N/A   Overcast
9:12 PM 32.0 °F 26.4 °F 30.2 °F 93% 29.64 in 10.0 mi NW 5.8 mph - N/A   Overcast
9:33 PM 32.0 °F 26.4 °F 30.2 °F 93% 29.64 in 10.0 mi NNW 5.8 mph - N/A   Overcast
9:53 PM 32.0 °F 26.4 °F 30.2 °F 93% 29.64 in 10.0 mi NNW 5.8 mph - N/A   Overcast
10:12 PM 32.0 °F 26.4 °F 30.2 °F 93% 29.64 in 10.0 mi NNW 5.8 mph - N/A   Overcast
10:33 PM 32.0 °F 25.6 °F 30.2 °F 93% 29.64 in 10.0 mi NNW 6.9 mph - N/A   Overcast
10:53 PM 32.0 °F 25.6 °F 30.2 °F 93% 29.65 in 10.0 mi NNW 6.9 mph - N/A   Overcast
11:12 PM 32.0 °F 25.6 °F 30.2 °F 93% 29.65 in 10.0 mi NNW 6.9 mph - N/A   Overcast
11:33 PM 30.2 °F 25.4 °F 30.2 °F 100% 29.65 in 10.0 mi NNW 4.6 mph - N/A   Overcast
11:52 PM 30.2 °F 26.7 °F 30.2 °F 100% 29.65 in 7.0 mi NNW 3.5 mph - N/A Snow Light Snow